Voltar ao catálogo

STARLINK-31995

AtivoComunicaçõesVLEO
NORAD 59958·PAYLOAD·🇺🇸 United States

Lançado Jun 5, 2024 de Cape Canaveral Space Force Station

Loading…

Próximas Passagens (próximas 24 horas)

TLE

AtualizadoSource: CelesTrak SupGP

Época: Sep 15, 2026, 02:50 UTC

1 59958C 24107P   26258.11854167 -.00016557  00000+0 -48909-3 0  2582
2 59958  53.1579 262.8511 0001312  84.5211  87.5897 15.34404105    13

Acompanhe STARLINK-31995 em tempo real com AllMySat

Download on the App Store